Location: Buckhorn Peak
(37.6641°N, 120.1241°W)
Time: 11:01:16
(UTC+00:00)

ISS - Visible Passes

Search period start: 10 October 2024 00:00
Search period end: 20 October 2024 00:00
Orbit: 412 x 424 km, 51.6° (Epoch: 10 October)

Date Brightness Start Highest point End Pass type
(mag) Time Alt. Az. Time Alt. Az. Time Alt. Az.
14 Oct -1.4 13:38:55 10° S 13:41:41 25° SE 13:44:29 10° ENE visible
15 Oct -0.8 12:51:48 10° SSE 12:53:36 14° SE 12:55:25 10° E visible
16 Oct -3.7 13:38:23 10° SW 13:41:42 84° SE 13:45:02 10° NE visible
17 Oct -2.7 12:51:06 16° SSW 12:53:24 43° SE 12:56:35 10° ENE visible
18 Oct -1.5 12:05:29 23° ESE 12:05:29 23° ESE 12:07:49 10° ENE visible
18 Oct -2.9 13:38:41 10° W 13:41:44 33° NNW 13:44:47 10° NNE visible
19 Oct -3.7 12:52:33 46° W 12:53:11 57° NW 12:56:29 10° NE visible
